Location: La Comballaz
(46.3780°N, 7.0817°E)
Time: 04:21:45
(UTC+00:00)

Envisat - Pass Details

Date: 10 December 2021
Orbit: 764 x 766 km, 98.2° (Epoch: 16 January)

Event Time Altitude Azimuth Distance (km) Brightness Sun altitude
Rises 16:25:07 0° 193° (SSW) 3,219 6.9 -6.9°
Reaches altitude 10° 16:27:39 10° 204° (SSW) 2,298 6.3 -7.2°
Maximum altitude 16:32:06 31° 265° (W) 1,335 5.1 -7.9°
Drops below altitude 10° 16:36:36 10° 327° (NNW) 2,313 5.6 -8.6°
Sets 16:39:11 0° 338° (NNW) 3,244 6.2 -9.0°
